Location: Mareeba Aerodrome
(17.0701°S, 145.4240°E)
Time: 07:34:27
(UTC+10:00)

X-37B - Visible Passes

Search period start: 01 October 2022 00:00
Search period end: 11 October 2022 00:00
Orbit: 329 x 342 km, 45.0° (Epoch: 29 September)

Date Brightness Start Highest point End Pass type
(mag) Time Alt. Az. Time Alt. Az. Time Alt. Az.
03 Oct 2.8 19:38:18 10° SSW 19:39:12 16° S 19:39:12 16° S visible
04 Oct 3.2 19:58:24 10° SW 19:59:19 18° WSW 19:59:19 18° WSW visible
05 Oct 1.6 18:43:45 10° SSW 18:46:11 25° SE 18:48:17 12° E visible
06 Oct 0.9 19:03:50 10° SW 19:06:36 53° NW 19:08:38 16° NNE visible
07 Oct 3.4 19:26:07 10° WNW 19:26:53 11° NW 19:27:39 10° NNW visible
